Date,TemperatureHighF,TemperatureAvgF,TemperatureLowF,DewpointHighF,DewpointAvgF,DewpointLowF,HumidityHigh,HumidityAvg,HumidityLow,PressureMaxIn,PressureMinIn,WindSpeedMaxMPH,WindSpeedAvgMPH,GustSpeedMaxMPH,PrecipitationSumIn
2013-2-1,35,32,26,-100,-100,-100,0,0,100,30.10,29.65,0,-999,0,0.00
2013-2-2,33,29,23,-100,-100,-100,0,0,100,30.28,30.07,0,-999,0,0.00
2013-2-3,34,29,24,-100,-100,-100,0,0,100,30.07,29.71,0,-999,0,0.00
2013-2-4,30,29,27,-100,-100,-100,0,0,100,29.96,29.73,0,-999,0,0.00
2013-2-5,29,26,24,-100,-100,-100,0,0,100,30.04,29.93,0,-999,0,0.00
2013-2-6,39,34,30,-100,-100,-100,0,0,100,30.29,29.91,0,-999,0,0.00
2013-2-7,31,27,25,-100,-100,-100,0,0,100,30.53,30.29,0,-999,0,0.00
2013-2-8,34,33,28,-100,-100,-100,0,0,100,30.47,29.55,0,-999,0,0.00
2013-2-9,31,22,17,-100,-100,-100,0,0,100,30.16,29.29,0,-999,0,0.00
2013-2-10,31,23,16,-100,-100,-100,0,0,100,30.40,30.16,0,-999,0,0.00
2013-2-11,47,40,29,-100,-100,-100,0,0,100,30.38,29.63,0,-999,0,0.00
2013-2-12,44,39,35,-100,-100,-100,0,0,100,29.91,29.62,0,-999,0,0.00
2013-2-13,39,35,33,-100,-100,-100,0,0,100,29.91,29.66,0,-999,0,0.00
2013-2-14,42,36,31,-100,-100,-100,0,0,100,30.04,29.69,0,-999,0,0.00
2013-2-15,44,38,33,-100,-100,-100,0,0,100,30.07,29.96,0,-999,0,0.00
2013-2-16,38,35,33,-100,-100,-100,0,0,100,29.96,29.64,0,-999,0,0.00
2013-2-17,35,28,21,-100,-100,-100,0,0,100,29.67,29.34,0,-999,0,0.00
2013-2-18,31,25,18,-100,-100,-100,0,0,100,30.19,29.69,0,-999,0,0.00
2013-2-19,46,40,30,-100,-100,-100,0,0,100,30.20,29.61,0,-999,0,0.00
2013-2-20,44,36,29,-100,-100,-100,0,0,100,29.81,29.59,0,-999,0,0.00
2013-2-21,35,31,27,-100,-100,-100,0,0,100,30.11,29.80,0,-999,0,0.00
2013-2-22,38,34,29,-100,-100,-100,0,0,100,30.37,30.15,0,-999,0,0.00
2013-2-23,38,36,33,-100,-100,-100,0,0,100,30.35,29.83,0,-999,0,0.00
2013-2-24,45,39,32,-100,-100,-100,0,0,100,29.85,29.59,0,-999,0,0.00
2013-2-25,41,36,31,-100,-100,-100,0,0,100,30.26,29.89,0,-999,0,0.00
2013-2-26,41,37,32,-100,-100,-100,0,0,100,30.35,30.13,0,-999,0,0.00
2013-2-27,44,41,38,-100,-100,-100,0,0,100,30.14,29.57,0,-999,0,0.00
2013-2-28,45,39,37,-100,-100,-100,0,0,100,29.66,29.52,0,-999,0,0.00